New Orleans Lakefront, LA

12:16 PM CDT on July 28, 2017 (GMT -0500)
Lakefront

Weather History for KNEW - December, 2012

Change the Weather History Date:

Sunday, December 23, 2012

  Actual Average Record
Temperature  
Mean Temperature 58 °F 54 °F  
Max Temperature 69 °F 63 °F 81 °F (1970)
Min Temperature 47 °F 46 °F 11 °F (1989)
Degree Days  
Heating Degree Days 7 11  
Month to date heating degree days 119 223  
Since 1 July heating degree days 308 387  
Cooling Degree Days 0 1  
Month to date cooling degree days 30 23  
Year to date cooling degree days 3404 3001  
Growing Degree Days 12 (Base 50)    
Moisture  
Dew Point 50 °F    
Average Humidity 74    
Maximum Humidity 84    
Minimum Humidity 63    
Precipitation  
Precipitation 0.00 in 0.18 in 2.38 in (1956)
Month to date precipitation 3.61 3.83  
Year to date precipitation 66.74 61.04  
Snow  
Snow 0.00 in - - ()
Month to date snowfall 0.0  
Since 1 July snowfall 0.0  
Snow Depth 0.00 in    
Sea Level Pressure  
Sea Level Pressure 30.10 in    
Wind  
Wind Speed 8 mph (SSE)    
Max Wind Speed 20 mph    
Max Gust Speed 24 mph    
Visibility 10 miles    
Events      
T = Trace of Precipitation, MM = Missing Value Source: NWS Daily Summary

Daily Weather History Graph

Daily Weather History Graph

Search for Another Location

Airport or City:

Trip Planner

Search our weather history database for the weather conditions in past years. The results will help you decide how hot, cold, wet, or windy it might be!

Date:

Astronomy

Dec. 23, 2012 Rise Set
Actual Time 6:53 AM CST 5:05 PM CST
Civil Twilight 6:26 AM CST 5:32 PM CST
Nautical Twilight 5:56 AM CST 6:02 PM CST
Astronomical Twilight 5:27 AM CST 6:31 PM CST
Moon 1:49 PM CST (12/23) 2:44 AM CST (12/23)
Length of Visible Light 11h 05m
Length of Day
10h 12m
Waxing Gibbous, 82% of the Moon is Illuminated
Dec 23
Waxing Gibbous
Dec 28
Full
Jan 4
Last Quarter
Jan 11
New
Jan 18
First Quarter

Hourly Weather History & Observations

Time (CST) Temp. Dew Point Humidity Pressure Visibility Wind Dir Wind Speed Gust Speed Precip Events Conditions
12:53 AM 53.1 °F 37.9 °F 57% 30.22 in 10.0 mi Calm Calm - N/A   Clear
1:53 AM 53.1 °F 39.9 °F 61% 30.20 in 10.0 mi ESE 3.5 mph - N/A   Clear
2:53 AM 54.0 °F 41.0 °F 62% 30.20 in 10.0 mi Calm Calm - N/A   Scattered Clouds
3:53 AM 55.0 °F 42.1 °F 62% 30.18 in 10.0 mi SE 5.8 mph - N/A   Partly Cloudy
4:53 AM 55.9 °F 43.0 °F 62% 30.19 in 10.0 mi Calm Calm - N/A   Clear
5:53 AM 55.9 °F 44.1 °F 64% 30.20 in 10.0 mi East 3.5 mph - N/A   Clear
6:53 AM 55.9 °F 46.0 °F 69% 30.20 in 10.0 mi ESE 5.8 mph - N/A   Clear
7:53 AM 57.0 °F 46.0 °F 67% 30.19 in 10.0 mi SE 10.4 mph - N/A   Mostly Cloudy
8:53 AM 59.0 °F 46.0 °F 62% 30.19 in 10.0 mi SE 10.4 mph - N/A   Scattered Clouds
9:53 AM 60.1 °F 46.9 °F 62% 30.18 in 10.0 mi SE 12.7 mph - N/A   Scattered Clouds
10:53 AM 62.1 °F 48.9 °F 62% 30.16 in 10.0 mi SE 11.5 mph - N/A   Clear
11:53 AM 66.0 °F 52.0 °F 60% 30.12 in 10.0 mi SE 11.5 mph - N/A   Clear
12:53 PM 71.1 °F 54.0 °F 55% 30.07 in 10.0 mi SSE 16.1 mph - N/A   Mostly Cloudy
1:53 PM 71.1 °F 55.0 °F 57% 30.05 in 10.0 mi South 15.0 mph - N/A   Overcast
2:53 PM 71.1 °F 55.0 °F 57% 30.04 in 10.0 mi South 16.1 mph 23.0 mph N/A   Scattered Clouds
3:53 PM 71.1 °F 55.0 °F 57% 30.02 in 10.0 mi South 13.8 mph - N/A   Overcast
4:53 PM 69.1 °F 55.0 °F 61% 30.01 in 10.0 mi South 11.5 mph - N/A   Overcast
5:53 PM 68.0 °F 55.0 °F 63% 30.01 in 10.0 mi South 9.2 mph - N/A   Overcast
6:53 PM 66.9 °F 55.9 °F 68% 30.01 in 10.0 mi South 9.2 mph - N/A   Overcast
7:53 PM 68.0 °F 55.9 °F 65% 30.01 in 10.0 mi South 9.2 mph - N/A   Overcast
8:53 PM 68.0 °F 55.9 °F 65% 30.00 in 10.0 mi South 13.8 mph - N/A   Overcast
9:53 PM 69.1 °F 57.0 °F 65% 30.01 in 10.0 mi South 12.7 mph - N/A   Overcast
10:53 PM 68.0 °F 57.9 °F 70% 29.98 in 10.0 mi South 12.7 mph - N/A   Scattered Clouds
11:53 PM 69.1 °F 59.0 °F 70% 29.97 in 10.0 mi South 12.7 mph - N/A   Overcast